Location: Mainz-Finthen
(49.9906°N, 8.1713°E)
Time: 05:33:00
(UTC+00:00)

BEESAT - Pass Details

Date: 08 December 2021
Orbit: 699 x 708 km, 98.6° (Epoch: 18 January)

Event Time Altitude Azimuth Distance (km) Brightness Sun altitude
Rises 06:04:05 0° 161° (SSE) 3,085 ? -10.4°
Reaches altitude 10° 06:06:19 10° 161° (SSE) 2,172 ? -10.1°
Maximum altitude 06:11:05 84° 75° (ENE) 718 ? -9.4°
Drops below altitude 10° 06:15:54 10° 346° (NNW) 2,193 ? -8.7°
Sets 06:18:11 0° 346° (NNW) 3,117 ? -8.4°
